ORBCOMM FM06 1 25118U 97084G 26106.11309719 .00000767 00000+0 24636-3 0 9994 2 25118 45.0153 351.5028 0001507 343.4726 170.7266 14.47405168485391 ORBCOMM FM04 1 25159U 98007C 26106.24254546 .00000542 00000+0 23175-3 0 9994 2 25159 107.9610 41.9525 0038859 73.7453 286.7957 14.35613294467702 ORBCOMM FM19 1 25415U 98046C 26106.23617598 .00000570 00000+0 22705-3 0 9990 2 25415 44.9928 178.0070 0002961 319.0893 70.1609 14.39372495447857 ORBCOMM FM20 1 25416U 98046D 26106.25173368 .00000368 00000+0 16711-3 0 9990 2 25416 44.9930 185.1799 0001613 254.2060 105.8611 14.37973574447871 ORBCOMM FM27 1 25481U 98053G 26105.77761422 .00000485 00000+0 20135-3 0 9995 2 25481 45.0052 271.7499 0000528 204.1625 155.9199 14.39022001441248 ORBCOMM FM32 1 25982U 99065C 26106.00237483 .00000359 00000+0 16725-3 0 9997 2 25982 45.0144 107.5612 0003681 108.8769 251.2479 14.37037172378143 ORBCOMM FM109 1 40086U 14040A 26106.18410139 .00000236 00000+0 86298-4 0 9996 2 40086 47.0047 24.6160 0002258 296.9636 63.1019 14.58778388625292 ORBCOMM FM114 1 41179U 15081A 26106.20179097 .00000239 00000+0 86894-4 0 9999 2 41179 47.0050 295.0482 0002690 271.9584 88.0994 14.58788290548707 ORBCOMM FM110 1 41182U 15081D 26106.25921704 .00000265 00000+0 92323-4 0 9991 2 41182 47.0023 294.2363 0002865 157.3456 202.7557 14.58807321548582 ORBCOMM FM118 1 41183U 15081E 26106.22540287 .00000289 00000+0 97401-4 0 9990 2 41183 47.0045 294.7197 0002647 115.1404 244.9756 14.58804823548684 ORBCOMM FM112 1 41184U 15081F 26106.29679605 .00000336 00000+0 10743-3 0 9991 2 41184 46.9986 202.8641 0002779 268.6630 91.3937 14.58802661549912 ORBCOMM FM113 1 41185U 15081G 26106.27417037 .00000200 00000+0 78751-4 0 9993 2 41185 47.0000 203.3460 0002330 273.5087 86.5532 14.58790880549894 ORBCOMM FM108 1 41187U 15081J 26106.30524875 .00000222 00000+0 83287-4 0 9992 2 41187 47.0039 114.7517 0003705 274.7972 85.2491 14.58806329551045 ORBCOMM FM117 1 41188U 15081K 26106.27067727 .00000193 00000+0 77298-4 0 9999 2 41188 47.0000 113.5682 0004128 279.6198 80.4221 14.58801212551086 ORBCOMM FM116 1 41189U 15081L 26106.25158037 .00000344 00000+0 10913-3 0 9991 2 41189 47.0018 203.4484 0001564 175.0087 185.0814 14.58799222549895